CW4498 Weather Reports


time (UTC)temp
C
wind
direction
speed
KPH
gust
KPH
rain 1hr
cm
rain 24hr
cm
rain mn
cm
humidity
%
barometer
mb
20260831074529 15 279 0.0 4.8 0.00 0.15 0.00 64 1021.9
20260831073033 15 290 0.0 1.6 0.00 0.15 0.00 62 1022.4
20260831071526 15 290 0.0 1.6 0.00 0.15 0.00 64 1022.4
20260831070028 15 290 0.0 0.0 0.00 0.15 0.00 68 1022.3
20260831064525 15 291 0.0 4.8 0.00 0.15 0.00 69 1022.6
20260831063025 15 117 0.0 0.0 0.00 0.15 0.00 68 1022.7
20260831061520 15 260 0.0 1.6 0.00 0.15 0.00 65 1022.3
20260831060017 15 279 1.6 4.8 0.00 0.15 0.00 69 1022.7
20260831054517 15 23 0.0 1.6 0.03 0.15 0.15 71 1023.2
20260831053016 16 113 3.2 16.1 0.03 0.15 0.15 63 1022.7
20260831051515 15 116 3.2 11.3 0.03 0.15 0.15 68 1023.6
20260831050014 17 147 4.8 12.9 0.05 0.15 0.15 62 1023.4
20260831044519 17 271 9.7 32.2 0.13 0.13 0.13 54 1022.8
20260831043013 16 302 14.5 37.0 0.13 0.13 0.13 60 1022.3
20260831041512 16 30 14.5 33.8 0.13 0.13 0.13 61 1022.7
20260831040009 16 306 16.1 37.0 0.08 0.08 0.08 64 1023.1
20260831034609 19 304 17.7 46.7 0.00 0.00 0.00 46 1022.1
20260831033008 20 325 14.5 30.6 0.00 0.00 0.00 43 1021.3
20260831031515 19 281 20.9 35.4 0.00 0.00 0.00 45 1021.0
20260831030006 20 281 17.7 38.6 0.00 0.00 0.00 44 1020.6
20260831024509 20 275 6.4 32.2 0.00 0.00 0.00 45 1020.6
20260831023004 20 271 9.7 30.6 0.00 0.00 0.00 45 1020.6
20260831021504 17 327 1.6 9.7 0.00 0.00 0.00 53 1020.8
20260831020004 17 360 1.6 8.0 0.00 0.00 0.00 62 1020.8
20260831014501 17 32 1.6 4.8 0.00 0.00 0.00 62 1020.5
20260831013001 17 28 1.6 11.3 0.00 0.00 0.00 62 1019.9
20260831011614 17 313 4.8 9.7 0.00 0.00 0.00 62 1019.6
20260831010100 18 12 3.2 8.0 0.00 0.00 0.00 59 1019.5
20260831004600 17 296 3.2 14.5 0.00 0.00 0.00 61 1019.7
20260831003059 17 345 3.2 16.1 0.00 0.00 0.00 63 1019.9
20260831001606 18 27 1.6 11.3 0.00 0.00 0.00 63 1019.9
20260830234558 18 58 0.0 8.0 0.00 0.00 0.00 63 1019.9
20260830233105 18 96 1.6 8.0 0.00 0.00 0.00 61 1020.3
20260830231607 18 30 1.6 8.0 0.00 0.00 0.00 62 1020.2
20260830230057 19 46 3.2 8.0 0.00 0.00 0.00 58 1020.1
20260830224616 20 355 3.2 9.7 0.00 0.05 0.00 52 1019.8
20260830223057 22 345 0.0 1.6 0.00 0.05 0.00 37 1019.3
20260830221603 22 154 1.6 9.7 0.00 0.05 0.00 37 1019.0
20260830220101 22 253 3.2 11.3 0.00 0.05 0.00 37 1018.7
20260830214559 22 107 3.2 6.4 0.00 0.05 0.00 46 1018.8
20260830213052 22 117 0.0 1.6 0.00 0.05 0.00 45 1018.8
20260830211554 23 112 0.0 1.6 0.00 0.05 0.00 44 1018.5
20260830210100 23 111 0.0 3.2 0.00 0.05 0.00 43 1018.4
20260830204554 23 103 0.0 4.8 0.00 0.05 0.00 44 1018.1
20260830203051 23 66 3.2 9.7 0.00 0.05 0.00 44 1018.3
20260830201550 23 117 4.8 14.5 0.00 0.05 0.00 44 1018.3
20260830200050 23 87 3.2 11.3 0.00 0.05 0.00 42 1018.5
20260830194550 23 134 4.8 12.9 0.00 0.05 0.00 39 1018.4
20260830193050 24 115 4.8 11.3 0.00 0.05 0.00 41 1018.7
20260830191549 24 61 4.8 11.3 0.00 0.05 0.00 39 1018.7
20260830190047 23 107 3.2 11.3 0.00 0.05 0.00 39 1018.8
20260830184543 23 113 1.6 8.0 0.00 0.05 0.00 43 1019.1
20260830183041 22 128 3.2 14.5 0.00 0.05 0.00 42 1019.2
20260830181539 22 108 4.8 8.0 0.00 0.05 0.00 43 1019.3
20260830180042 22 120 0.0 8.0 0.00 0.05 0.00 46 1019.3
20260830174541 22 128 1.6 4.8 0.00 0.05 0.00 45 1019.4
20260830173040 22 113 0.0 4.8 0.00 0.05 0.00 44 1019.6
20260830171534 21 98 0.0 1.6 0.00 0.05 0.00 47 1019.6
20260830170030 20 103 0.0 0.0 0.00 0.05 0.00 51 1019.8
20260830164551 20 113 0.0 1.6 0.00 0.05 0.00 54 1019.6
20260830163027 18 314 0.0 0.0 0.00 0.05 0.00 59 1019.7
20260830161517 18 313 0.0 1.6 0.00 0.05 0.00 58 1019.6
20260830160016 17 273 0.0 6.4 0.00 0.05 0.00 61 1019.5
20260830154516 16 295 0.0 1.6 0.00 0.05 0.00 63 1019.7
20260830153014 16 294 0.0 0.0 0.00 0.05 0.00 62 1019.3
20260830151515 16 294 0.0 0.0 0.00 0.05 0.00 64 1019.1
20260830150015 16 294 0.0 0.0 0.00 0.05 0.00 62 1019.0
20260830144516 16 294 0.0 0.0 0.00 0.05 0.00 63 1019.1
20260830143013 16 294 0.0 3.2 0.00 0.05 0.00 64 1019.0
20260830141526 16 273 0.0 0.0 0.00 0.05 0.00 64 1018.9
20260830140012 16 273 0.0 0.0 0.00 0.05 0.00 63 1019.4
20260830134520 15 273 0.0 0.0 0.00 0.05 0.00 64 1019.0
20260830133011 15 273 0.0 0.0 0.00 0.05 0.00 65 1018.9
20260830131510 15 273 0.0 0.0 0.00 0.05 0.00 64 1019.0
20260830130015 15 279 0.0 0.0 0.00 0.05 0.00 64 1018.9
20260830124509 15 280 0.0 3.2 0.00 0.05 0.00 64 1018.8
20260830123007 15 117 0.0 3.2 0.00 0.05 0.00 63 1018.4
20260830121506 15 117 0.0 1.6 0.00 0.05 0.00 62 1018.1
20260830120006 15 264 0.0 0.0 0.00 0.05 0.00 62 1018.0
20260830114506 15 264 0.0 4.8 0.00 0.05 0.00 62 1017.8
20260830113005 15 122 0.0 1.6 0.00 0.05 0.00 62 1017.6
20260830111504 15 122 0.0 0.0 0.00 0.05 0.00 63 1017.5
20260830110004 15 122 0.0 0.0 0.00 0.05 0.00 62 1017.7
20260830104501 15 123 0.0 0.0 0.00 0.05 0.00 61 1017.7
20260830103058 16 122 0.0 0.0 0.00 0.05 0.00 60 1017.5
20260830101600 17 123 0.0 4.8 0.00 0.05 0.00 57 1017.6
20260830100058 17 131 0.0 6.4 0.00 0.05 0.00 56 1017.9
20260830094558 17 159 1.6 9.7 0.00 0.05 0.00 57 1017.9
20260830093107 16 267 0.0 3.2 0.00 0.05 0.00 59 1017.9
20260830091558 16 118 1.6 6.4 0.00 0.05 0.00 60 1017.9
20260830090058 16 163 1.6 9.7 0.00 0.05 0.00 62 1017.9
20260830084603 16 121 1.6 6.4 0.00 0.05 0.00 61 1017.8
20260830083055 16 107 0.0 1.6 0.00 0.05 0.00 61 1017.6
20260830081600 16 106 0.0 0.0 0.00 0.05 0.00 60 1017.4
20260830080052 16 106 0.0 0.0 0.00 0.05 0.00 59 1017.6